Peyton, CO

3:00 PM MST on February 19, 2017 (GMT -0700)
Meadow Lake

Weather History for KFLY - January, 2013

Change the Weather History Date:

Thursday, January 10, 2013

  Actual Average (KCOS) Record (KCOS)
Temperature  
Mean Temperature 32 °F -  
Max Temperature 46 °F 39 °F 70 °F (1990)
Min Temperature 17 °F 14 °F -20 °F (1962)
Degree Days  
Heating Degree Days 34    
Moisture  
Dew Point 11 °F    
Average Humidity 43    
Maximum Humidity 76    
Minimum Humidity 16    
Precipitation  
Precipitation 0.00 in - - ()
Sea Level Pressure  
Sea Level Pressure 29.78 in    
Wind  
Wind Speed 6 mph (SW)    
Max Wind Speed 21 mph    
Max Gust Speed 30 mph    
Visibility 10 miles    
Events      
Averages and records for this station are not official NWS values.
T = Trace of Precipitation, MM = Missing Value Source: NWS Daily Summary

Daily Weather History Graph

Daily Weather History Graph

Search for Another Location

Airport or City:

Trip Planner

Search our weather history database for the weather conditions in past years. The results will help you decide how hot, cold, wet, or windy it might be!

Date:

Astronomy

Jan. 10, 2013 Rise Set
Actual Time 7:16 AM MST 4:55 PM MST
Civil Twilight 6:47 AM MST 5:24 PM MST
Nautical Twilight 6:14 AM MST 5:57 PM MST
Astronomical Twilight 5:42 AM MST 6:30 PM MST
Moon 5:59 AM MST (1/10) 4:05 PM MST (1/10)
Length of Visible Light 10h 37m
Length of Day
9h 38m
Waning Crescent, 2% of the Moon is Illuminated
Jan 10
Waning Crescent
Jan 11
New
Jan 18
First Quarter
Jan 26
Full
Feb 3
Last Quarter

Hourly Weather History & Observations

Time (MST) Temp. Windchill Dew Point Humidity Pressure Visibility Wind Dir Wind Speed Gust Speed Precip Events Conditions
12:14 AM 25.2 °F 17.3 °F 12.9 °F 60% 30.12 in 10.0 mi SSW 6.9 mph - N/A   Clear
12:34 AM 23.2 °F 17.2 °F 11.3 °F 60% 30.11 in 10.0 mi South 4.6 mph - N/A   Clear
12:54 AM 23.0 °F - 12.2 °F 63% 30.10 in 10.0 mi Calm Calm - N/A   Clear
1:14 AM 23.9 °F 19.5 °F 12.9 °F 63% 30.09 in 10.0 mi WSW 3.5 mph - N/A   Clear
1:34 AM 23.4 °F 16.2 °F 12.6 °F 63% 30.07 in 10.0 mi South 5.8 mph - N/A   Clear
1:54 AM 22.8 °F 13.6 °F 13.6 °F 68% 30.06 in 10.0 mi SSW 8.1 mph - N/A   Clear
2:14 AM 21.9 °F 15.7 °F 13.1 °F 69% 30.06 in 10.0 mi SSW 4.6 mph - N/A   Clear
2:34 AM 22.5 °F 17.8 °F 14.2 °F 71% 30.05 in 10.0 mi West 3.5 mph - N/A   Clear
2:54 AM 20.8 °F 12.1 °F 13.5 °F 73% 30.04 in 10.0 mi SSW 6.9 mph - N/A   Clear
3:14 AM 20.1 °F 15.2 °F 12.0 °F 71% 30.03 in 10.0 mi West 3.5 mph - N/A   Clear
3:34 AM 17.2 °F 11.9 °F 10.8 °F 76% 30.02 in 10.0 mi West 3.5 mph - N/A   Clear
3:54 AM 23.0 °F 15.8 °F 13.1 °F 66% 30.00 in 10.0 mi SW 5.8 mph - N/A   Clear
4:14 AM 23.9 °F 15.0 °F 13.5 °F 64% 29.98 in 10.0 mi SW 8.1 mph - N/A   Clear
4:34 AM 25.7 °F 15.7 °F 13.5 °F 60% 29.97 in 10.0 mi SSW 10.4 mph - N/A   Clear
5:34 AM 24.4 °F - 12.2 °F 60% 29.94 in 10.0 mi Calm Calm - N/A   Clear
5:54 AM 23.9 °F 16.8 °F 12.0 °F 61% 29.94 in 10.0 mi NNE 5.8 mph - N/A   Clear
6:14 AM 22.1 °F 17.4 °F 10.6 °F 61% 29.94 in 10.0 mi NNW 3.5 mph - N/A   Clear
6:54 AM 19.4 °F - 9.5 °F 65% 29.92 in 10.0 mi Calm Calm - N/A   Clear
7:14 AM 24.6 °F 20.3 °F 10.6 °F 55% 29.90 in 10.0 mi East 3.5 mph - N/A   Clear
7:34 AM 24.6 °F 18.8 °F 9.5 °F 53% 29.89 in 10.0 mi NNE 4.6 mph - N/A   Clear
8:14 AM 29.1 °F 25.4 °F 12.7 °F 50% 29.88 in 10.0 mi NE 3.5 mph - N/A   Clear
8:34 AM 32.4 °F - 13.8 °F 46% 29.87 in 10.0 mi Calm Calm - N/A   Clear
8:54 AM 33.8 °F 28.6 °F 15.1 °F 46% 29.87 in 10.0 mi NE 5.8 mph - N/A   Clear
9:14 AM 35.1 °F 32.2 °F 19.0 °F 52% 29.87 in 10.0 mi ENE 3.5 mph - N/A   Clear
9:34 AM 35.1 °F 32.2 °F 22.3 °F 60% 29.86 in 10.0 mi SE 3.5 mph - N/A   Clear
9:54 AM 34.9 °F - 21.2 °F 57% 29.85 in 10.0 mi Calm Calm - N/A   Clear
10:14 AM 36.0 °F 33.3 °F 21.4 °F 55% 29.84 in 10.0 mi SSW 3.5 mph - N/A   Clear
10:34 AM 35.8 °F - 21.7 °F 57% 29.82 in 10.0 mi Calm Calm - N/A   Clear
10:54 AM 36.5 °F - 19.4 °F 50% 29.80 in 10.0 mi Calm Calm - N/A   Clear
11:14 AM 36.9 °F - 14.2 °F 40% 29.78 in 10.0 mi Calm Calm - N/A   Clear
11:34 AM 37.6 °F 35.1 °F 12.0 °F 35% 29.77 in 10.0 mi South 3.5 mph - N/A   Clear
11:54 AM 39.2 °F 32.5 °F 11.1 °F 32% 29.75 in 10.0 mi SSW 10.4 mph - N/A   Clear
12:34 PM 39.0 °F - 11.5 °F 32% 29.72 in 10.0 mi Calm Calm - N/A   Clear
12:54 PM 38.7 °F 36.3 °F 10.8 °F 32% 29.70 in 10.0 mi West 3.5 mph - N/A   Clear
1:14 PM 38.7 °F 35.2 °F 11.1 °F 32% 29.70 in 10.0 mi WSW 4.6 mph - N/A   Clear
1:34 PM 40.6 °F 37.5 °F 10.4 °F 29% 29.69 in 10.0 mi WSW 4.6 mph - N/A   Clear
1:54 PM 40.5 °F - 10.4 °F 29% 29.69 in 10.0 mi Calm Calm - N/A   Clear
2:14 PM 40.3 °F - 10.8 °F 30% 29.69 in 10.0 mi Calm Calm - N/A   Clear
2:34 PM 39.7 °F - 9.7 °F 29% 29.68 in 10.0 mi Calm Calm - N/A   Clear
2:54 PM 39.9 °F 37.8 °F 10.2 °F 30% 29.68 in 10.0 mi WSW 3.5 mph - N/A   Clear
3:14 PM 39.6 °F - 9.3 °F 29% 29.67 in 10.0 mi Calm Calm - N/A   Clear
3:34 PM 39.4 °F 36.1 °F 11.3 °F 32% 29.66 in 10.0 mi WNW 4.6 mph - N/A   Clear
3:54 PM 45.1 °F - 6.6 °F 21% 29.66 in 10.0 mi Calm Calm - N/A   Clear
4:14 PM 44.8 °F 42.4 °F 5.7 °F 20% 29.66 in 10.0 mi SW 4.6 mph - N/A   Clear
4:34 PM 40.5 °F 36.5 °F 8.6 °F 27% 29.65 in 10.0 mi SW 5.8 mph - N/A   Clear
4:54 PM 37.6 °F 35.1 °F 8.6 °F 30% 29.65 in 10.0 mi SE 3.5 mph - N/A   Clear
5:14 PM 35.6 °F 31.7 °F 8.4 °F 32% 29.64 in 10.0 mi WNW 4.6 mph - N/A   Clear
5:34 PM 41.4 °F 33.3 °F 5.0 °F 22% 29.63 in 10.0 mi SW 16.1 mph - N/A   Clear
5:54 PM 46.4 °F 40.4 °F 2.1 °F 16% 29.63 in 10.0 mi WSW 13.8 mph 24.2 mph N/A   Clear
6:14 PM 36.1 °F 33.5 °F 5.0 °F 27% 29.63 in 10.0 mi SE 3.5 mph - N/A   Clear
6:34 PM 34.7 °F 29.6 °F 8.1 °F 33% 29.63 in 10.0 mi West 5.8 mph - N/A   Clear
6:54 PM 31.3 °F 24.7 °F 6.3 °F 35% 29.62 in 10.0 mi WSW 6.9 mph - N/A   Clear
7:14 PM 35.8 °F 30.1 °F 4.6 °F 27% 29.62 in 10.0 mi West 6.9 mph - N/A   Clear
7:34 PM 33.6 °F 25.6 °F 4.6 °F 30% 29.62 in 10.0 mi WSW 10.4 mph - N/A   Clear
7:54 PM 34.7 °F 26.9 °F 3.9 °F 27% 29.62 in 10.0 mi WSW 10.4 mph - N/A   Clear
8:14 PM 34.0 °F 25.5 °F 3.2 °F 27% 29.62 in 10.0 mi SSW 11.5 mph - N/A   Clear
8:34 PM 35.4 °F 27.8 °F 2.7 °F 25% 29.61 in 10.0 mi SSW 10.4 mph 18.4 mph N/A   Clear
8:54 PM 38.3 °F 29.7 °F 3.2 °F 23% 29.60 in 10.0 mi SSW 15.0 mph - N/A   Clear
9:14 PM 40.8 °F 31.4 °F 6.3 °F 24% 29.59 in 10.0 mi SW 20.7 mph 25.3 mph N/A   Clear
9:34 PM 41.0 °F 31.9 °F 7.9 °F 26% 29.58 in 10.0 mi SW 19.6 mph 25.3 mph N/A   Clear
9:54 PM 41.5 °F 32.9 °F 9.1 °F 27% 29.58 in 10.0 mi SSW 18.4 mph 25.3 mph N/A   Clear
10:14 PM 43.3 °F 34.7 °F 10.0 °F 26% 29.58 in 10.0 mi SW 20.7 mph 29.9 mph N/A   Clear
10:34 PM 41.5 °F 32.9 °F 9.5 °F 27% 29.58 in 10.0 mi SSW 18.4 mph 28.8 mph N/A   Clear
10:54 PM 38.5 °F 29.9 °F 9.0 °F 30% 29.56 in 10.0 mi South 15.0 mph 20.7 mph N/A   Clear
11:14 PM 35.1 °F 27.9 °F 8.4 °F 33% 29.56 in 10.0 mi SSW 9.2 mph - N/A   Clear
11:34 PM 32.0 °F 24.8 °F 8.4 °F 37% 29.54 in 10.0 mi South 8.1 mph - N/A   Clear
11:54 PM 35.2 °F 25.8 °F 11.1 °F 37% 29.54 in 10.0 mi South 15.0 mph - N/A   Clear